Regional Weather Roundup
Issued by NWS Charleston, SC

Current Version | Previous Version | Graphics & Text | Print | Product List | Glossary On
Versions: 1 2 3 4 5 6 7 8 9 10 11 12 13 14 15 16 17 18 19 20 21 22 23 24 25 26 27 28 29 30 31 32 33 34 35 36 37 38 39 40 41 42 43 44 45 46 47 48 49 50
000 ASUS42 KCHS 291525 RWRCHS REGIONAL WEATHER ROUNDUP NATIONAL WEATHER SERVICE CHARLESTON SC 1100 AM EDT FRI AUG 29 2014 NOTE: "FAIR" INDICATES FEW OR NO CLOUDS BELOW 12,000 FEET WITH NO SIGNIFICANT WEATHER AND/OR OBSTRUCTIONS TO VISIBILITY. NOT ALL STATIONS ARE QUALITY CONTROLLED BY THE NATIONAL WEATHER SERVICE. USE DATA WITH CAUTION...ESPECIALLY DEWPOINT OBSERVATIONS. SCZ027-030-031-034>040-042>050-291600- ...SOUTH CAROLINA... CITY SKY/WX TMP DP RH WIND PRES REMARKS N CHARLESTON MOSUNNY 87 73 62 SE3 30.10S HX 94 WATERFRONT PRK N/A 84 N/A N/A CALM N/A FORT JOHNSON NOT AVBL MOUNT PLEASANT PTSUNNY 84 75 74 CALM 30.10S HX 92 JOHNS ISLAND CLOUDY 82 75 78 CALM 30.10S PINOPOLIS N/A 86 73 66 CALM 30.04R HX 93 MONCKS CORNER N/A 84 75 74 CALM 30.11S HX 92 SUMMERVILLE FAIR 84 73 70 CALM 30.11S HX 91 BEAUFORT MCAS PTSUNNY 86 73 65 CALM 30.09F HX 93 BEAUFORT ARPT FAIR 84 72 65 CALM 30.09F HILTON HEAD IS MOSUNNY 82 72 69 CALM 30.11S GEORGETOWN NOT AVBL WALTERBORO PTSUNNY 86 64 48 W5 30.11S ORANGEBURG SUNNY 84 69 60 SW5 30.11R BARNWELL FAIR 86 68 54 SW3 30.10F AIKEN FAIR 86 68 54 CALM 30.13F MANNING FAIR 86 68 54 SW5 30.11S KINGSTREE NOT AVBL COLUMBIA SUNNY 86 67 52 CALM 30.10R SUMTER SUNNY 85 66 54 VRB1 30.10R FLORENCE SUNNY 85 64 49 VRB3 30.11R MYRTLE BEACH SUNNY 84 70 61 S6 30.11R N MYRTLE BEACH SUNNY 84 70 62 CALM 30.11R $$ GAZ063-065-086>088-099>101-113>116-118-119-134-136>141-150-291600- ...GEORGIA... CITY SKY/WX TMP DP RH WIND PRES REMARKS SAVANNAH ARPT MOSUNNY 86 68 54 CALM 30.09F HUNTER AAF SUNNY 85 70 60 VRB6 30.08S HX 90 FORT STEWART SUNNY 86 69 57 SW7 30.08S HX 90 STATESBORO NOT AVBL SYLVANIA SUNNY 83 69 62 CALM 30.11S CLAXTON NOT AVBL THOMSON SUNNY 87 69 53 CALM 30.14R HX 91 AUGUSTA-BUSH SUNNY 84 68 58 VRB3 30.09R AUGUSTA-DANIEL SUNNY 87 66 49 N5 30.10S SWAINSBORO FAIR 90 68 48 CALM 30.10R HX 93 VIDALIA N/A 88 68 51 CALM 30.09S HX 91 ALMA SUNNY 86 72 62 CALM 30.08S HX 92 WAYCROSS SUNNY 90 73 57 CALM 30.07F HX 98 JESUP N/A 90 73 58 CALM 30.08F HX 98 BRUNSWICK SUNNY 88 70 55 CALM 30.09S HX 92 SAINT SIMONS MOSUNNY 84 75 74 E5 30.08R HX 92 $$ SCZ027-028-034-036>038-045-046-048>050-GAZ119-141-291600- ...LAKE AND SUPPLEMENTAL COASTAL OBSERVATIONS... STATION/POSITION TIME TEMP WIND PRES WAVE SWELL AIR SEA DIR/SP/G HT/PER HT/PER/DIR (UTC) (F) (DEG/KT/KT) (MB) (FT/S) (FT/S/D) UPR LAKE MARION NOT AVBL WINYAH BAY 1500 83 50/ 1 1019.0S LAKE MURRAY 1500 82 180/ 6/ 7 1018.6S ACE BASIN NERRS 1500 85 220/ 1 1019.0S FORT PULASKI 1500 82 290/ 2/ 4 1019.3S SAPELO ISLAND 1500 85 CALM 1019.0S $$ ANZ835-935-AMZ111-154-330-350-352-354-374-450-454-472-291600- ...C-MAN AND BUOY OBSERVATIONS... STATION/POSITION TIME TEMP WIND PRES WAVE SWELL AIR SEA DIR/SP/G HT/PER HT/PER/DIR (UTC) (F) (DEG/KT/KT) (MB) (FT/S) (FT/S/D) FOLLY BEACH CMAN 1500 83 60/ 5/ 7 1019.6R BUOY 41004 1500 82 84 250/ 2/ 4 1018.7R 3/ 9 3/ 9 BUOY 41008 1500 82 85 30/ 6/ 8 1018.7R 3/ 8 2/ 90/ 8 5E ST. MARYS GA 1500 84 N/A 3/ 9 FRYING PAN BUOY NOT AVBL BUOY 41025 1500 79 270/ 8/ 10 1019.5R 3/ 8 3/ 60/ 8 CAPE LOOKOUT NC 1500 83 270/ 6/ 8 1019.7R BUOY 41002 1420 80 83 80/ 4/ 6 1020.7R 4/ 7 3/ 90/ 7 BUOY 41010 1500 84 83 180/ 8/ 10 1018.7S 3/ 8 3/ 60/ 8 BUOY 41012 NOT AVBL ST AUGUSTINE FL 1500 82 130/ 8/ 8 1019.2R CAPERS NEARSHORE 1400 81 30/ 8/ 8 N/A FRIPP NEARSHORE NOT AVBL $$

USA.gov is the U.S. government's official web portal to all federal, state and local government web resources and services.